User: anonymous   Login
Location: Newark
(43.0000°N, 1.6781°W)
Time: 10:22:57
(UTC+00:00)
Language:

Transit 4A - Orbit

View from above orbital plane
View from above orbital plane
View from above satellite
View from above satellite

Ground track
Ground track

The orbit data is extracted from the following two-line orbital elements,

1 00116U 61015A   22279.44442661  .00000015  00000-0  70839-4 0  9991
2 00116  66.8097 312.2158 0071648 143.8781 216.7170 13.91847989108839
Epoch (UTC): 06 October 2022 10:39:58
Eccentricity: 0.0071648
inclination: 66.8097°
perigee height: 870 km
apogee height: 974 km
right ascension of ascending node: 312.2158°
argument of perigee: 143.8781°
revolutions per day: 13.91847989
mean anomaly at epoch: 216.7170°
orbit number at epoch: 10883

The dashed part of the orbit path shows where the satellite is in the earth's shadow,  

DLR